Location: Beutels
(47.8767°N, 9.8584°E)
Time: 07:10:47
(UTC+00:00)

Meteor 1-26 Rocket - Pass Details

Date: 19 May 2025
Orbit: 805 x 928 km, 81.3° (Epoch: 22 June)

Event Time Altitude Azimuth Distance (km) Brightness Sun altitude
Exits shadow 20:53:42 - 194° (SSW) 2,741 6.5 -14.9°
Reaches altitude 10° 20:54:12 10° 194° (SSW) 2,552 6.3 -15.0°
Maximum altitude 21:00:03 80° 282° (WNW) 930 4.4 -15.5°
Drops below altitude 10° 21:06:06 10° 10° (N) 2,632 7.5 -16.1°
Sets 21:08:37 0° 11° (NNE) 3,586 8.2 -16.3°
